173P/Mueller 5 (2008)

Japanese version
Home page
Total 6,336 html files since Dec. 4, 1995
Updated on April 20, 2008

---------------------------------------------------------------------

* Profile

Designation 173P/2005 T1
Recovery Date October 7, 2005
Magnitude 18.0 mag
Recoverer E. J. Christensen (Mt. Lemmon Survey)

* Pictures

* Orbital Elements

                    Epoch = 2008 May  14.0 TT
     T = 2008 May  18.5222 TT         Peri. =  29.8348
     e = 0.261149                     Node  = 100.5697  2000.0
     q = 4.214478 AU                  Incl. =  16.4959
       a =  5.704097 AU    n = 0.0723475    P =  13.62 years

* Finding Charts

* Magnitudes Graph

        m1 = -14 + 5 log d + 45 log r(t + 600)

---------------------------------------------------------------------

The orbital elements are calculated by Dr. Brian G. Marsden and printed on IAUC 8613.
The charts are made with StellaNavigator Ver.2.0 for Windows (AstroArts / ASCII).
The magnitudes graphs are made with Comet for Windows.

---------------------------------------------------------------------

Copyright(C) 1995-2008 Seiichi Yoshida (comet@aerith.net). All rights reserved.